Погода в Пустовалове

Россия / Самарская область     53°13′14″N   51°12′09″E
темп.,
°C
ветер,
м/с
пор.,
м/с
влажн.,
%
обл.,
%
осадки,
мм/ч
давл.,
гПа
погр.,
м
23 апреля, пт
пт2301:00+5юв3693100 0.0 1027232
04:00+4вюв3495100 0.0 1027104
07:00+5в3590100 0.0 1027186
10:00+9в4569100 0.0 1026624
13:00+13в4554100 0.0 10231112
16:00+14юв5546100 0.0 10221496
19:00+10ююв4870100 0.0 1022412
22:00+8юв3888100 0.1 1021456
24 апреля, сб
сб2401:00+8в3792100 1.4 1018506
04:00+7всв4794100 3.3 1016394
07:00+7св2492100 0.7 1014182
10:00+7в1291100 0.9 1014228
13:00+8зюз1284100 0.1 1013385
16:00+8з238398 0.2 1013328
19:00+9ююв2281100 0.0 101335
22:00+7ююв478899 0.0 1012120
25 апреля, вс
вс2501:00+8ююв499399 1.2 1010270
04:00+8юз71193100 2.6 10091038
07:00+6зюз61079100 2.4 10111287
10:00+9зюз8125793 2.6 10121784
13:00+11зюз10144186 0.4 10132748
16:00+10зюз1014525 0.6 10152320
19:00+8зюз812625 0.0 10161182
22:00+5юз4107422 0.0 1018254
26 апреля, пн
пн2601:00+4юз410750 0.1 1019235
04:00+3юз36755 0.1 102199
07:00+5ю2469100 0.0 1021124
10:00+10ю5645100 0.0 10201176
13:00+12ю4533100 0.0 10181762
16:00+13ююв3436100 0.0 10161959
19:00+10вюв3657100 0.0 1014161
22:00+8юв3677100 0.0 1012206
27 апреля, вт
вт2701:00+7св2478100 0.0 1011154
04:00+6ссв3783100 0.0 1009238
07:00+7св357897 0.0 1008300
10:00+10с11625 0.0 1008759
13:00+13з224810 0.1 10071623
16:00+13зюз5652100 0.1 10081719
19:00+11юз6106034 0.1 1008718
22:00+8зюз5116096 0.3 1009473